Flag for U.S.A. Weather past 2 weeks in Des Moines, Iowa, U.S.A.

Now
90 °F

Partly sunny.


Feels Like: 95 °F
Forecast: 71 / 91 °F
Wind: 14 mph from South

Location: Des Moines International Airport

Current Time: Sep 4, 2015 at 2:17:15 PM

Latest Report: Sep 4, 2015 at 1:54 PM


Visibility: 10 mi

Pressure: 29.91 "Hg

Humidity: 52%

Dew point: 70 °F

Location of Des MoinesLocation

Historic Weather in Des Moines — Graph

°F

Des Moines temperature yesterday

Maximum temperature yesterday: 91 °F (at 3:54 PM)
Minimum temperature yesterday: 73 °F (at 4:54 AM)
Average temperature yesterday: 81 °F

Past Weeks' High & Low Weather Summary

 TemperatureHumidityPressure
High91 °F (Sep 3, 3:54 PM)94% (Aug 29, 3:54 AM)30.20 "Hg (Aug 29, 3:54 AM)
Low53 °F (Aug 24, 4:54 AM)33% (Aug 25, 3:54 PM)29.79 "Hg (Aug 22, 5:54 PM)
Average72 °F70%29.98 "Hg
* Reported Aug 20 12:54 PM — Sep 4 12:54 PM, Des Moines, Weather by CustomWeather, © 2015

Note: Actual official high and low records may vary slightly from our data, if they occured in-between our weather recording intervals... More about our weather records

Advertising

Des Moines weather history for previous 24 hours

 ConditionsComfort  
Time TempWeatherWind HumidityBarometerVisibility
12:54 PM
Fri, Sep 4
87 °FPartly sunny.12 mph55%29.93 "Hg10 mi
11:54 AM88 °FBroken clouds.13 mph57%29.93 "Hg10 mi
10:54 AM85 °FBroken clouds.13 mph61%29.93 "Hg10 mi
9:54 AM82 °FScattered clouds.8 mph67%29.94 "Hg10 mi
8:54 AM77 °FScattered clouds.8 mph74%29.94 "Hg10 mi
7:54 AM73 °FScattered clouds.8 mph81%29.93 "Hg10 mi
6:54 AM71 °FPassing clouds.8 mph84%29.91 "Hg10 mi
5:54 AM72 °FClear.7 mph81%29.88 "Hg10 mi
4:54 AM72 °FPassing clouds.7 mph81%29.88 "Hg10 mi
3:54 AM73 °FPassing clouds.7 mph81%29.89 "Hg10 mi
2:54 AM74 °FPassing clouds.8 mph82%29.89 "Hg10 mi
1:54 AM76 °FPassing clouds.8 mph77%29.90 "Hg10 mi
12:54 AM78 °FPassing clouds.7 mph71%29.89 "Hg10 mi
11:54 PM
Thu, Sep 3
78 °FPassing clouds.8 mph74%29.87 "Hg10 mi
10:54 PM79 °FPassing clouds.7 mph74%29.86 "Hg10 mi
9:54 PM79 °FPassing clouds.6 mph77%29.86 "Hg10 mi
8:54 PM83 °FPassing clouds.8 mph68%29.85 "Hg10 mi
7:54 PM83 °FScattered clouds.6 mph70%29.82 "Hg10 mi
6:54 PM86 °FScattered clouds.8 mph59%29.82 "Hg10 mi
5:54 PM89 °FScattered clouds.9 mph55%29.82 "Hg10 mi
4:54 PM91 °FScattered clouds.13 mph50%29.82 "Hg10 mi
3:54 PM91 °FPassing clouds.14 mph50%29.83 "Hg10 mi
2:54 PM90 °FPassing clouds.12 mph54%29.84 "Hg10 mi
Weather by CustomWeather, © 2015

See weather overviewHow to use our weather pages